ARIANE 5 DEB, 43384

Orbit data source: Space-Track

ARIANE 5 DEB, 43384 is space debris in HEO originally from a launch on Thu, 12 Jun 2008 UTC launched from the French Guiana (FRGUI). Debris objects in space refer to the collection of defunct objects orbiting the Earth. Examples of debris include non-operational satellites, rocket bodies, and fragments generated from explosions, collisions, or faulty payload assembly.

Loading next visibility...
Identifier
43384, 2008-030G
Orbit
HEO
Country
Flag of FRFR
Related business
Manufacturer
Thales Alenia
Mission
Spacecraft
Bus & Motor
Unknown
Mass
Unknown
Launch date (UTC)
2008-06-12 (18 years ago)
Launch vehicle
Unknown
Launch site
French Guiana (FRGUI)
Object type
Payload
Rocket body
Debris
Shape & HBR
Unknown shape, 1.1 m
Radar Cross Section
Medium (>0.1 m² and <1 m²)

Expand to show TLE details & history
Last TLE update: 22 hours ago

TLE from 22 hours ago
0 ARIANE 5 DEB
1 43384U 08030G   25348.70045507  .00001079  00000-0  22468-2 0  9994
2 43384   2.2966 356.1365 7209919 279.7345  12.0865  2.30814774141949
Epoch: 2025-12-14T16:48Z
TLE epoch observation values (Epoch: 2025-12-14T16:48:39.318Z)
Latitude
-0.00005°
Longitude
19.86606°
Altitude
3,897.015 km
Speed
7.816 km/s
True Right ascension
23h 42m 33s
True Declination
0° 00' 00"
Sunlit
Object was in daylight at epoch
Visualization orbit readout
Latitude
Unknown
Longitude
Unknown
Altitude
Unknown
Speed
Unknown
Apparent Right ascension
Unknown
Apparent Declination
Unknown
Sunlit
N/A
Visualization observer readout
Local Sidereal Time
13:24:44
Azimuth
Unknown
Elevation
Unknown
Doppler factor
Unknown
Orbital elements
Apogee altitude
35,254.754 km
Perigee altitude
371.409 km
Semi-major axis
24,191.219 km
Eccentricity
0.72099
Inclination
2.2966°
RAAN
356.1365°
Arg. of periapsis
279.7345°
True anomaly
79.24995°
Mean anomaly
12.0865°
Eccentric anomaly
36.87575°
Mean motion
0.57684 °/min
Orbital period
624.09 mins
BSTAR
0.0022468
Loading maneuver chart data...
Computing Atmospheric mass density...
Loading historical data...
Loading historical data...
Loading historical data...
Loading historical data...
Loading historical data...
Loading historical data...
Loading historical data...

Documentation

Showing up to 5 results
|